Stations météo

réclame
Mon MeteoGroup
Waldmünchen, Allemagne (10782): Température de l'air & dewpoint: 12.01.2019 13:00:00 - 18.01.2019 13:00:00 (CET)Waldmünchen, Allemagne (10782): Température de l'air 5cm & Température de l'air -5cm: 12.01.2019 13:00:00 - 18.01.2019 13:00:00 (CET)Waldmünchen, Allemagne (10782): Température de l'air -20cm & Température de l'air -100cm: 12.01.2019 13:00:00 - 18.01.2019 13:00:00 (CET)Waldmünchen, Allemagne (10782): Vitesse du vent & gusts: 12.01.2019 13:00:00 - 18.01.2019 13:00:00 (CET)Waldmünchen, Allemagne (10782): Direction du vent: 12.01.2019 13:00:00 - 18.01.2019 13:00:00 (CET)Waldmünchen, Allemagne (10782): reduced air pressure: 12.01.2019 13:00:00 - 18.01.2019 13:00:00 (CET)Waldmünchen, Allemagne (10782): visibility: 12.01.2019 13:00:00 - 18.01.2019 13:00:00 (CET)Waldmünchen, Allemagne (10782): Ensoleillement: 12.01.2019 13:00:00 - 18.01.2019 13:00:00 (CET)Waldmünchen, Allemagne (10782): Quantités de précipitations: 12.01.2019 13:00:00 - 18.01.2019 13:00:00 (CET)
Date & Time tt [°C] td [°C] tt 5cm [°C] tt -5cm [°C] tt -20cm [°C] tt -100cm [°C] ff [km/h] ff [knt] fx [km/h] fx [knt] dd ppp [hPa] vv [km] sd [min] rr [mm]
18.01.2019 13:00:00 - - - - - - - - - - - - - - -
18.01.2019 12:00:00 -0,3 -5,2 -0,6 0,1 0,8 4,4 13 7 21 12 W 1020,3 16 30 0,0
18.01.2019 11:00:00 -0,8 -4,4 -0,8 0,1 0,8 4,4 16 9 29 15 W 1020,2 27 0 0,0
18.01.2019 10:00:00 -0,9 -3,8 -1,0 0,1 0,8 4,4 18 10 27 15 W 1019,0 22 0 0,0
18.01.2019 09:00:00 -0,9 -3,4 -1,0 0,1 0,8 4,4 19 10 29 16 WSW 1018,1 23 0 0,0
18.01.2019 08:00:00 -0,8 -3,5 -1,1 0,1 0,8 4,4 17 9 28 15 W 1016,9 22 0 0,0
18.01.2019 07:00:00 -0,7 -3,1 -1,0 0,1 0,8 4,4 18 10 31 17 W 1015,7 18 0 0,1
18.01.2019 06:00:00 -0,6 -2,8 -0,8 0,1 0,8 4,4 20 11 32 17 W 1014,5 20 0 0,0
18.01.2019 05:00:00 -0,5 -3,0 -0,7 0,1 0,8 4,4 18 10 33 18 W 1013,7 25 0 0,0
18.01.2019 04:00:00 -0,5 -3,3 -0,8 0,1 0,8 4,4 17 9 35 19 W 1013,5 39 0 0,0
18.01.2019 03:00:00 -0,7 -2,7 -1,3 0,1 0,8 4,4 17 9 27 15 WSW 1013,0 35 0 0,0
18.01.2019 02:00:00 -0,3 -2,8 -1,1 0,1 0,8 4,4 18 10 36 19 WSW 1012,6 46 0 0,0
18.01.2019 01:00:00 0,4 -1,7 0,0 0,1 0,8 4,4 26 14 40 21 W 1011,9 42 0 0,0
18.01.2019 00:00:00 0,2 -0,3 0,1 0,1 0,8 4,4 15 8 25 14 WSW 1011,0 6 0 0,0
17.01.2019 23:00:00 0,7 -0,8 0,2 0,1 0,8 4,5 16 9 33 18 W 1010,4 35 0 0,0
17.01.2019 22:00:00 1,0 -0,6 0,4 0,1 0,8 4,5 22 12 67 36 W 1009,8 62 0 0,1
17.01.2019 21:00:00 2,9 -0,1 1,8 0,1 0,8 4,5 26 14 41 22 SW 1008,2 43 0 0,0
17.01.2019 20:00:00 3,1 0,8 1,9 0,1 0,8 4,5 23 12 35 19 SW 1007,9 58 0 0,0
17.01.2019 19:00:00 3,3 1,1 2,0 0,1 0,8 4,5 19 10 33 18 SW 1007,3 63 0 0,0
17.01.2019 18:00:00 2,5 0,7 1,1 0,1 0,8 4,5 8 4 19 10 SSW 1007,1 27 0 0,0
17.01.2019 17:00:00 2,5 0,7 1,4 0,1 0,8 4,5 16 9 33 18 WSW 1006,7 62 0 0,2
17.01.2019 16:00:00 2,1 1,3 1,3 0,1 0,8 4,5 26 14 59 32 WSW 1006,6 5 0 1,5
17.01.2019 15:00:00 5,0 1,3 2,9 0,1 0,9 4,5 21 11 33 18 SSW 1004,8 27 0 0,1
17.01.2019 14:00:00 4,6 0,8 2,5 0,1 0,9 4,5 21 12 32 17 SW 1005,2 28 0 0,0
17.01.2019 13:00:00 4,2 0,4 2,7 0,1 0,9 4,5 19 10 33 18 SW 1005,8 25 0 0,0
17.01.2019 12:00:00 3,3 0,1 1,9 0,1 0,9 4,5 18 10 30 16 SSW 1006,9 20 0 0,0
17.01.2019 11:00:00 2,4 -0,5 1,3 0,1 0,9 4,5 13 7 23 12 SSW 1007,6 20 0 0,1
17.01.2019 10:00:00 3,0 -0,6 1,8 0,1 0,9 4,5 16 9 26 14 SSW 1007,5 23 0 0,0
17.01.2019 09:00:00 2,9 -0,8 1,8 0,1 0,9 4,5 18 10 33 18 SW 1007,7 26 0 0,0
17.01.2019 08:00:00 2,6 -1,2 1,6 0,1 0,9 4,5 21 11 34 18 SW 1007,7 25 0 0,0
17.01.2019 07:00:00 2,6 -1,7 1,1 0,1 0,9 4,5 17 9 29 15 SW 1007,7 35 0 0,0
17.01.2019 06:00:00 2,5 -2,4 1,5 0,1 0,9 4,5 17 9 28 15 SW 1007,9 37 0 0,0
17.01.2019 05:00:00 2,5 -2,8 1,5 0,1 0,9 4,5 23 12 41 22 SW 1008,0 37 0 0,0
17.01.2019 04:00:00 1,3 -3,3 -1,1 0,1 0,9 4,5 18 10 30 16 SW 1008,3 35 0 0,0
17.01.2019 03:00:00 0,2 -3,8 -2,8 0,1 0,9 4,5 11 6 15 8 S 1008,9 28 0 0,0
17.01.2019 02:00:00 0,5 -3,5 -3,1 0,1 0,9 4,5 7 4 13 7 WSW 1009,1 27 0 0,0
17.01.2019 01:00:00 -0,4 -3,1 -3,6 0,1 0,9 4,5 4 2 12 7 ENE 1009,7 25 0 0,0
17.01.2019 00:00:00 1,0 -2,8 -2,5 0,1 0,9 4,5 5 3 15 8 W 1010,2 25 0 0,0
16.01.2019 23:00:00 0,9 -2,8 -1,5 0,1 0,9 4,5 9 5 17 9 SW 1010,5 23 0 0,0
16.01.2019 22:00:00 1,1 -2,6 -1,0 0,1 0,9 4,5 5 3 13 7 SW 1010,9 23 0 0,0
16.01.2019 21:00:00 1,3 -2,4 -1,3 0,1 0,9 4,5 5 3 21 11 S 1011,0 22 0 0,0
16.01.2019 20:00:00 1,5 -2,3 -0,4 0,2 0,9 4,5 12 6 22 12 S 1011,5 24 0 0,0
16.01.2019 19:00:00 1,9 -1,7 -0,1 0,2 1,0 4,5 9 5 30 16 SSW 1011,7 25 0 0,0
16.01.2019 18:00:00 2,0 -1,4 0,4 0,2 1,0 4,5 16 9 31 17 SSW 1012,1 24 0 0,0
16.01.2019 17:00:00 2,3 -1,3 0,7 0,3 1,0 4,5 11 6 20 11 SSW 1012,3 26 0 0,0
16.01.2019 16:00:00 2,5 -1,3 1,1 0,3 1,0 4,5 11 6 24 13 S 1012,9 25 0 0,0
16.01.2019 15:00:00 2,9 -1,3 1,7 0,4 1,0 4,5 16 8 29 16 SSW 1013,2 27 13 0,0
16.01.2019 14:00:00 3,2 -1,6 2,3 0,4 1,0 4,5 17 9 29 15 SSW 1013,8 22 23 0,0
16.01.2019 13:00:00 2,7 -1,8 2,0 0,4 1,0 4,5 20 11 32 17 SW 1014,7 18 15 0,0
16.01.2019 12:00:00 2,4 -1,4 1,8 0,3 0,9 4,5 16 9 29 15 SW 1015,7 29 0 0,0
16.01.2019 11:00:00 2,0 -1,1 1,5 0,3 0,9 4,5 14 8 32 17 SW 1016,6 28 0 0,0
16.01.2019 10:00:00 1,7 -1,1 1,3 0,3 0,9 4,5 17 9 29 16 SSW 1016,8 38 0 0,0
16.01.2019 09:00:00 1,6 -0,7 0,9 0,3 0,9 4,5 13 7 20 11 SSW 1017,0 25 0 0,0
16.01.2019 08:00:00 1,6 -0,4 0,9 0,3 0,9 4,5 11 6 28 15 SW 1016,8 28 0 0,0
16.01.2019 07:00:00 1,7 -0,3 0,8 0,3 0,9 4,5 21 11 32 18 WSW 1016,8 21 0 0,0
16.01.2019 06:00:00 1,7 -0,1 0,9 0,3 0,9 4,5 17 9 29 15 SW 1016,8 12 0 0,0
16.01.2019 05:00:00 1,9 -0,2 1,1 0,3 0,9 4,5 21 11 31 17 SW 1017,1 23 0 0,0
16.01.2019 04:00:00 2,0 -0,4 1,2 0,3 0,9 4,5 19 10 29 16 SW 1017,4 26 0 0,0
16.01.2019 03:00:00 2,1 -0,1 1,2 0,3 0,9 4,5 20 11 32 18 WSW 1017,8 24 0 0,0
16.01.2019 02:00:00 2,2 -0,1 1,2 0,3 0,9 4,5 19 10 32 17 SW 1017,6 21 0 0,0
16.01.2019 01:00:00 2,0 0,0 1,1 0,3 0,9 4,5 18 10 35 19 SW 1018,1 22 0 0,0
16.01.2019 00:00:00 2,1 0,0 1,2 0,3 0,9 4,5 24 13 42 23 WSW 1018,2 21 0 0,0
15.01.2019 23:00:00 2,0 0,0 1,0 0,3 0,9 4,5 25 14 36 20 WSW 1018,5 22 0 0,0
15.01.2019 22:00:00 1,9 -0,3 1,0 0,3 0,9 4,5 24 13 36 19 WSW 1018,6 21 0 0,0
15.01.2019 21:00:00 2,0 -0,6 1,0 0,3 0,9 4,5 27 14 41 22 WSW 1018,6 26 0 0,0
15.01.2019 20:00:00 2,0 -1,2 0,7 0,3 0,9 4,5 26 14 39 21 WSW 1018,4 32 0 0,0
15.01.2019 19:00:00 1,9 -1,1 0,4 0,3 0,9 4,5 24 13 33 18 W 1018,3 30 0 0,0
15.01.2019 18:00:00 1,1 -0,7 0,1 0,3 0,9 4,5 20 11 30 16 W 1018,6 15 0 0,1
15.01.2019 17:00:00 0,9 -0,6 0,1 0,3 0,9 4,5 21 11 30 16 WSW 1018,8 6 0 0,1
15.01.2019 16:00:00 1,3 -1,3 0,1 0,3 0,9 4,5 27 15 40 21 WSW 1018,7 11 0 0,0
15.01.2019 15:00:00 1,2 -1,4 0,1 0,3 0,9 4,5 23 12 36 19 W 1018,5 13 0 0,0
15.01.2019 14:00:00 1,1 -1,6 0,2 0,3 0,9 4,5 24 13 43 23 W 1018,8 20 0 0,0
15.01.2019 13:00:00 0,6 -1,9 0,0 0,3 0,9 4,5 27 15 44 24 WSW 1019,3 16 0 0,0
15.01.2019 12:00:00 0,4 -2,8 -0,2 0,3 0,9 4,5 26 14 42 23 WSW 1020,0 23 0 0,0
15.01.2019 11:00:00 0,2 -2,9 -0,3 0,3 0,9 4,5 24 13 38 21 WSW 1020,8 30 0 0,0
15.01.2019 10:00:00 0,0 -3,2 -0,6 0,2 0,9 4,6 25 14 38 20 W 1020,9 25 0 0,0
15.01.2019 09:00:00 -0,2 -3,3 -0,9 0,2 0,9 4,6 21 11 38 21 W 1020,6 37 0 0,0
15.01.2019 08:00:00 -0,1 -3,3 -0,9 0,2 0,9 4,6 22 12 36 20 W 1020,4 36 0 0,0
15.01.2019 07:00:00 -0,4 -3,4 -1,1 0,2 0,9 4,6 21 12 36 19 W 1019,9 38 0 0,0
15.01.2019 06:00:00 -0,4 -3,6 -1,4 0,2 0,9 4,6 25 14 34 18 W 1019,4 34 0 0,0
15.01.2019 05:00:00 -0,7 -3,6 -1,6 0,2 0,9 4,6 15 8 22 12 W 1019,0 36 0 0,1
15.01.2019 04:00:00 -1,0 -3,0 -1,5 0,2 0,9 4,6 13 7 34 18 W 1018,9 2,8 0 0,1
15.01.2019 03:00:00 -0,8 -3,7 -1,5 0,2 0,9 4,6 20 11 43 23 W 1018,4 48 0 0,0
15.01.2019 02:00:00 -0,9 -4,0 -1,6 0,2 0,9 4,6 19 11 40 21 W 1017,7 37 0 0,0
15.01.2019 01:00:00 -1,5 -3,7 -2,5 0,2 0,9 4,6 12 7 24 13 W 1017,5 48 0 0,0
15.01.2019 00:00:00 -1,6 -4,4 -3,5 0,2 0,9 4,6 16 9 30 16 W 1017,0 32 0 0,1
14.01.2019 23:00:00 -0,9 -3,6 -1,3 0,2 0,9 4,6 14 8 29 15 WNW 1016,6 3,1 0 0,1
14.01.2019 22:00:00 -0,6 -4,1 -2,3 0,2 0,8 4,6 14 8 22 12 WNW 1016,0 57 0 0,2
14.01.2019 21:00:00 -0,5 -3,4 -1,5 0,2 0,8 4,6 6 3 29 15 NNW 1015,3 26 0 0,0
14.01.2019 20:00:00 -1,2 -3,1 -3,3 0,2 0,8 4,6 15 8 31 17 NW 1014,4 65 0 0,7
14.01.2019 19:00:00 -0,5 -2,3 -1,8 0,2 0,9 4,6 16 8 53 28 NW 1012,6 45 0 0,0
14.01.2019 18:00:00 0,2 -4,2 -1,5 0,2 0,9 4,6 16 9 35 19 WNW 1011,2 65 0 0,0
14.01.2019 17:00:00 -0,4 -2,6 -1,1 0,2 0,9 4,6 23 12 40 22 NW 1010,7 12 0 0,5
14.01.2019 16:00:00 2,1 -3,8 1,1 0,2 0,9 4,6 29 16 51 27 WNW 1008,5 29 6 0,0
14.01.2019 15:00:00 1,9 -2,1 1,3 0,2 0,9 4,6 23 13 39 21 W 1007,7 15 3 0,0
14.01.2019 14:00:00 1,6 -2,1 1,1 0,2 0,9 4,6 25 13 41 22 W 1007,3 20 0 0,1
14.01.2019 13:00:00 2,0 -2,5 1,2 0,2 0,8 4,6 21 11 41 22 W 1007,4 17 0 0,0
14.01.2019 12:00:00 1,9 -2,5 1,3 0,2 0,8 4,6 14 8 27 14 W 1007,4 26 1 0,0
14.01.2019 11:00:00 1,8 -1,7 1,8 0,2 0,8 4,6 18 10 28 15 WSW 1007,5 17 39 0,0
14.01.2019 10:00:00 1,6 -2,4 1,0 0,2 0,8 4,6 16 9 42 23 WNW 1007,3 26 8 0,0
14.01.2019 09:00:00 1,7 -2,1 0,7 0,2 0,8 4,6 26 14 39 21 WNW 1006,3 39 0 0,0
14.01.2019 08:00:00 2,3 -1,2 0,9 0,2 0,8 4,6 25 13 40 22 WNW 1004,6 59 0 0,0
14.01.2019 07:00:00 2,4 0,1 0,8 0,2 0,8 4,7 13 7 29 16 W 1003,5 62 0 0,0
14.01.2019 06:00:00 2,7 0,9 1,3 0,2 0,8 4,7 23 12 38 21 W 1002,0 9 0 0,1
14.01.2019 05:00:00 3,1 0,5 1,3 0,2 0,8 4,7 23 12 45 24 W 1000,4 36 0 0,0
14.01.2019 04:00:00 3,1 1,0 1,1 0,2 0,9 4,7 22 12 36 20 W 999,9 46 0 0,0
14.01.2019 03:00:00 3,0 1,4 1,0 0,2 0,9 4,7 15 8 27 15 W 999,2 48 0 0,0
14.01.2019 02:00:00 2,9 1,0 0,8 0,2 0,9 4,7 22 12 36 19 WNW 998,9 47 0 0,2
14.01.2019 01:00:00 3,5 1,4 0,3 0,2 0,9 4,7 23 12 48 26 WNW 998,0 56 0 0,0
14.01.2019 00:00:00 4,3 2,3 0,1 0,2 0,9 4,8 27 14 43 23 W 996,9 62 0 0,2
13.01.2019 23:00:00 4,5 2,3 0,0 0,2 0,9 4,8 34 18 53 29 W 996,8 51 0 0,0
13.01.2019 22:00:00 4,8 3,9 0,1 0,2 0,9 4,8 29 16 44 24 W 997,2 66 0 1,0
13.01.2019 21:00:00 3,2 3,1 0,1 0,2 0,9 4,8 21 11 29 16 WSW 997,8 4,3 0 0,5
13.01.2019 20:00:00 2,5 2,2 0,1 0,2 0,9 4,8 16 9 29 16 WSW 999,0 8 0 0,6
13.01.2019 19:00:00 2,1 1,8 0,1 0,2 0,9 4,8 11 6 21 11 SW 1000,1 3,2 0 1,2
13.01.2019 18:00:00 1,3 1,1 0,1 0,2 0,9 4,8 6 4 18 10 SSW 1001,5 2,7 0 1,0
13.01.2019 17:00:00 0,7 0,2 0,1 0,2 1,0 4,8 12 6 23 12 SSW 1002,4 2,7 0 1,6
13.01.2019 16:00:00 0,7 0,1 0,0 0,2 1,0 4,8 12 6 31 17 SW 1003,3 3,1 0 1,6
13.01.2019 15:00:00 1,1 0,3 0,1 0,2 1,0 4,8 25 13 45 24 SW 1004,1 18 0 0,4
13.01.2019 14:00:00 1,8 0,8 0,1 0,2 1,0 4,8 28 15 48 26 SW 1005,2 24 0 0,2
13.01.2019 13:00:00 1,7 1,0 0,1 0,2 1,0 4,8 26 14 36 19 SW 1006,7 9 0 0,9
13.01.2019 12:00:00 1,3 0,6 0,1 0,2 1,0 4,8 19 10 31 17 SW 1008,1 8 0 1,0
13.01.2019 11:00:00 1,7 1,2 0,1 0,2 1,0 4,8 23 13 33 18 WSW 1009,3 6 0 0,1
13.01.2019 10:00:00 1,6 1,2 0,1 0,2 1,0 4,8 20 11 29 16 WSW 1010,4 8 0 0,0
13.01.2019 09:00:00 1,2 0,9 0,1 0,2 1,0 4,8 15 8 23 12 WSW 1010,9 9 0 0,0
13.01.2019 08:00:00 1,1 0,8 0,1 0,2 1,0 4,8 13 7 24 13 WSW 1011,2 7 0 0,0
13.01.2019 07:00:00 1,1 0,6 0,1 0,2 1,0 4,8 15 8 24 13 W 1011,2 12 0 0,0
13.01.2019 06:00:00 0,8 0,4 0,1 0,2 1,0 4,8 12 7 19 11 WSW 1011,7 15 0 0,1
13.01.2019 05:00:00 0,4 0,2 0,1 0,2 1,0 4,8 11 6 16 9 W 1011,8 4,3 0 0,2
13.01.2019 04:00:00 0,2 0,1 0,1 0,2 1,0 4,8 9 5 14 8 WSW 1011,7 2,1 0 0,6
13.01.2019 03:00:00 0,3 0,2 0,1 0,2 1,0 4,8 9 5 18 10 WSW 1012,0 12 0 0,3
13.01.2019 02:00:00 0,2 0,0 0,1 0,2 1,0 4,8 13 7 19 10 WSW 1012,1 6 0 0,7
13.01.2019 01:00:00 0,2 0,0 0,1 0,2 1,0 4,8 6 4 16 8 SW 1012,3 1,4 0 0,4
13.01.2019 00:00:00 0,2 0,0 0,1 0,2 1,0 4,8 8 5 19 10 SW 1012,7 7 0 0,5
12.01.2019 23:00:00 0,2 0,2 0,1 0,2 1,0 4,8 10 5 19 10 SW 1013,1 3,8 0 0,9
12.01.2019 22:00:00 0,1 0,0 0,1 0,2 1,0 4,8 17 9 26 14 WSW 1014,0 1,7 0 1,3
12.01.2019 21:00:00 0,1 -0,1 0,1 0,2 1,0 4,8 15 8 24 13 SW 1014,5 1,2 0 1,4
12.01.2019 20:00:00 0,3 -0,1 0,1 0,2 1,0 4,8 16 9 31 17 SW 1015,1 1,8 0 0,9
12.01.2019 19:00:00 0,5 -0,1 0,1 0,2 1,0 4,8 15 8 29 15 SW 1016,0 5 0 0,8
12.01.2019 18:00:00 0,7 0,0 0,1 0,2 1,0 4,8 19 11 39 21 SW 1016,6 4,4 0 0,1
12.01.2019 17:00:00 0,9 -0,2 0,1 0,3 1,0 4,8 27 15 42 23 SW 1017,3 13 0 0,0
12.01.2019 16:00:00 0,6 0,0 0,1 0,3 1,0 4,8 27 15 49 26 WSW 1018,0 10 0 0,1
12.01.2019 15:00:00 0,8 0,1 0,1 0,3 1,0 4,8 30 16 40 22 WSW 1018,4 11 0 0,0
12.01.2019 14:00:00 0,8 0,2 0,1 0,3 1,0 4,8 28 15 48 26 WSW 1018,9 11 0 0,0
12.01.2019 13:00:00 0,7 0,1 0,1 0,3 1,0 4,8 23 12 32 17 WSW 1019,8 12 0 0,1

tt = Température de l'air
td = dewpoint
tt 5cm = Température de l'air 5cm
tt -5cm = Température de l'air -5cm
tt -20cm = Température de l'air -20cm
tt -100cm = Température de l'air -100cm
ff = Vitesse du vent
fx = gusts
dd = Direction du vent
ppp = reduced air pressure
vv = visibility
sd = Ensoleillement
rr = Quantités de précipitations

stations d'obs. à proximité